| time (UTC) | temp F | wind direction | speed knots | gust knots | rain 1hr in | rain 24hr in | rain mn in | humidity % | barometer mb |
| 20260906213027 | 68 | 355 | 4.3 | 8.7 | 0.00 | 0.00 | 0.00 | 71 | 1018.9 |
| 20260906212533 | 68 | 25 | 5.2 | 8.7 | 0.00 | 0.00 | 0.00 | 71 | 1018.9 |
| 20260906212020 | 68 | 324 | 4.3 | 8.7 | 0.00 | 0.00 | 0.00 | 72 | 1018.9 |
| 20260906211549 | 68 | 47 | 4.3 | 9.6 | 0.00 | 0.00 | 0.00 | 72 | 1018.9 |
| 20260906211024 | 68 | 9 | 6.1 | 9.6 | 0.00 | 0.00 | 0.00 | 73 | 1018.9 |
| 20260906210550 | 68 | 329 | 4.3 | 9.6 | 0.00 | 0.00 | 0.00 | 74 | 1019.0 |
| 20260906210039 | 68 | 344 | 5.2 | 10.4 | 0.00 | 0.00 | 0.00 | 72 | 1019.0 |
| 20260906205529 | 68 | 348 | 7.0 | 10.4 | 0.00 | 0.00 | 0.00 | 72 | 1019.0 |
| 20260906205045 | 68 | 346 | 5.2 | 9.6 | 0.00 | 0.00 | 0.00 | 72 | 1018.9 |
| 20260906204522 | 68 | 332 | 6.1 | 12.2 | 0.00 | 0.00 | 0.00 | 73 | 1018.8 |
| 20260906204047 | 68 | 340 | 7.0 | 12.2 | 0.00 | 0.00 | 0.00 | 71 | 1018.8 |
| 20260906203524 | 68 | 333 | 6.1 | 9.6 | 0.00 | 0.00 | 0.00 | 71 | 1018.8 |
| 20260906203033 | 68 | 343 | 3.5 | 9.6 | 0.00 | 0.00 | 0.00 | 73 | 1018.7 |
| 20260906202521 | 69 | 274 | 6.1 | 9.6 | 0.00 | 0.00 | 0.00 | 71 | 1018.7 |
| 20260906202051 | 69 | 24 | 4.3 | 8.7 | 0.00 | 0.00 | 0.00 | 72 | 1018.6 |
| 20260906201532 | 69 | 309 | 3.5 | 8.7 | 0.00 | 0.00 | 0.00 | 73 | 1018.6 |
| 20260906201031 | 69 | 333 | 5.2 | 7.8 | 0.00 | 0.00 | 0.00 | 73 | 1018.7 |
| 20260906200537 | 68 | 331 | 4.3 | 8.7 | 0.00 | 0.00 | 0.00 | 74 | 1018.7 |
| 20260906200107 | 68 | 360 | 6.1 | 10.4 | 0.00 | 0.00 | 0.00 | 71 | 1018.7 |
| 20260906195548 | 69 | 25 | 7.0 | 10.4 | 0.00 | 0.00 | 0.00 | 72 | 1018.7 |
| 20260906195057 | 69 | 5 | 5.2 | 10.4 | 0.00 | 0.00 | 0.00 | 73 | 1018.8 |
| 20260906194544 | 69 | 342 | 6.1 | 10.4 | 0.00 | 0.00 | 0.00 | 72 | 1018.9 |
| 20260906194034 | 69 | 355 | 4.3 | 11.3 | 0.00 | 0.00 | 0.00 | 73 | 1018.8 |
| 20260906193539 | 69 | 338 | 7.8 | 11.3 | 0.00 | 0.00 | 0.00 | 72 | 1018.7 |
| 20260906193029 | 69 | 336 | 5.2 | 12.2 | 0.00 | 0.00 | 0.00 | 74 | 1018.7 |
| 20260906192522 | 69 | 350 | 6.1 | 12.2 | 0.00 | 0.00 | 0.00 | 72 | 1018.6 |
| 20260906192040 | 69 | 317 | 4.3 | 11.3 | 0.00 | 0.00 | 0.00 | 73 | 1018.6 |
| 20260906191520 | 69 | 16 | 5.2 | 9.6 | 0.00 | 0.00 | 0.00 | 71 | 1018.7 |
| 20260906191024 | 69 | 324 | 6.1 | 9.6 | 0.00 | 0.00 | 0.00 | 71 | 1018.6 |
| 20260906190528 | 69 | 16 | 3.5 | 13.0 | 0.00 | 0.00 | 0.00 | 74 | 1018.6 |
| 20260906190022 | 69 | 339 | 7.8 | 13.0 | 0.00 | 0.00 | 0.00 | 70 | 1018.6 |
| 20260906185554 | 69 | 342 | 6.1 | 13.0 | 0.00 | 0.00 | 0.00 | 73 | 1018.7 |
| 20260906185024 | 69 | 331 | 5.2 | 10.4 | 0.00 | 0.00 | 0.00 | 70 | 1018.7 |
| 20260906184541 | 69 | 26 | 5.2 | 12.2 | 0.00 | 0.00 | 0.00 | 72 | 1018.7 |
| 20260906184106 | 69 | 344 | 7.8 | 12.2 | 0.00 | 0.00 | 0.00 | 71 | 1018.6 |
| 20260906183553 | 69 | 5 | 3.5 | 7.8 | 0.00 | 0.00 | 0.00 | 73 | 1018.6 |
| 20260906183027 | 69 | 342 | 4.3 | 12.2 | 0.00 | 0.00 | 0.00 | 73 | 1018.7 |
| 20260906182540 | 69 | 19 | 7.8 | 12.2 | 0.00 | 0.00 | 0.00 | 72 | 1018.8 |
| 20260906182027 | 69 | 347 | 4.3 | 8.7 | 0.00 | 0.00 | 0.00 | 71 | 1018.8 |
| 20260906181542 | 69 | 334 | 4.3 | 10.4 | 0.00 | 0.00 | 0.00 | 74 | 1018.8 |
| 20260906181034 | 69 | 17 | 6.1 | 12.2 | 0.00 | 0.00 | 0.00 | 73 | 1018.8 |
| 20260906180541 | 69 | 5 | 8.7 | 12.2 | 0.00 | 0.00 | 0.00 | 72 | 1018.8 |
| 20260906180032 | 68 | 325 | 5.2 | 9.6 | 0.00 | 0.00 | 0.00 | 72 | 1018.8 |
| 20260906175538 | 69 | 343 | 6.1 | 13.0 | 0.00 | 0.00 | 0.00 | 74 | 1018.9 |
| 20260906175041 | 69 | 16 | 5.2 | 13.9 | 0.00 | 0.00 | 0.00 | 72 | 1018.8 |
| 20260906174557 | 69 | 336 | 6.1 | 13.0 | 0.00 | 0.00 | 0.00 | 71 | 1018.7 |
| 20260906174021 | 69 | 329 | 7.8 | 11.3 | 0.00 | 0.00 | 0.00 | 71 | 1018.7 |
| 20260906173533 | 69 | 331 | 6.1 | 11.3 | 0.00 | 0.00 | 0.00 | 71 | 1018.8 |
| 20260906173026 | 69 | 343 | 7.0 | 11.3 | 0.00 | 0.00 | 0.00 | 73 | 1018.9 |
| 20260906172530 | 69 | 34 | 5.2 | 10.4 | 0.00 | 0.00 | 0.00 | 72 | 1018.9 |
| 20260906172038 | 69 | 340 | 7.0 | 13.9 | 0.00 | 0.00 | 0.00 | 71 | 1018.9 |
| 20260906171604 | 70 | 355 | 6.1 | 13.9 | 0.00 | 0.00 | 0.00 | 71 | 1018.9 |
| 20260906171103 | 70 | 346 | 8.7 | 12.2 | 0.00 | 0.00 | 0.00 | 69 | 1018.9 |
| 20260906170551 | 70 | 288 | 5.2 | 10.4 | 0.00 | 0.00 | 0.00 | 71 | 1018.9 |
| 20260906170041 | 70 | 337 | 5.2 | 11.3 | 0.00 | 0.00 | 0.00 | 69 | 1018.9 |
| 20260906165556 | 70 | 355 | 7.0 | 14.8 | 0.00 | 0.00 | 0.00 | 68 | 1018.8 |
| 20260906165022 | 70 | 329 | 5.2 | 12.2 | 0.00 | 0.00 | 0.00 | 69 | 1018.7 |
| 20260906164536 | 70 | 26 | 4.3 | 13.9 | 0.00 | 0.00 | 0.00 | 68 | 1018.7 |
| 20260906164029 | 70 | 49 | 7.8 | 13.9 | 0.00 | 0.00 | 0.00 | 68 | 1018.8 |
| 20260906163534 | 70 | 37 | 8.7 | 12.2 | 0.00 | 0.00 | 0.00 | 69 | 1018.8 |
| 20260906163039 | 70 | 18 | 4.3 | 11.3 | 0.00 | 0.00 | 0.00 | 72 | 1018.7 |
| 20260906162549 | 69 | 55 | 4.3 | 11.3 | 0.00 | 0.00 | 0.00 | 70 | 1018.7 |
| 20260906162034 | 69 | 36 | 7.0 | 13.0 | 0.00 | 0.00 | 0.00 | 70 | 1018.7 |
| 20260906161527 | 69 | 19 | 7.8 | 11.3 | 0.00 | 0.00 | 0.00 | 72 | 1018.8 |
| 20260906161043 | 69 | 5 | 6.1 | 12.2 | 0.00 | 0.00 | 0.00 | 73 | 1018.8 |
| 20260906160527 | 70 | 27 | 6.1 | 11.3 | 0.00 | 0.00 | 0.00 | 72 | 1018.8 |
| 20260906160047 | 70 | 32 | 6.1 | 10.4 | 0.00 | 0.00 | 0.00 | 72 | 1018.8 |
| 20260906155525 | 69 | 34 | 5.2 | 9.6 | 0.00 | 0.00 | 0.00 | 75 | 1018.7 |
| 20260906155030 | 69 | 24 | 4.3 | 11.3 | 0.00 | 0.00 | 0.00 | 74 | 1018.8 |
| 20260906154533 | 69 | 15 | 7.8 | 12.2 | 0.00 | 0.00 | 0.00 | 72 | 1018.9 |
| 20260906154040 | 70 | 34 | 6.1 | 12.2 | 0.00 | 0.00 | 0.00 | 74 | 1018.8 |
| 20260906153520 | 70 | 28 | 8.7 | 12.2 | 0.00 | 0.00 | 0.00 | 75 | 1018.7 |
| 20260906153044 | 69 | 9 | 7.0 | 12.2 | 0.00 | 0.00 | 0.00 | 75 | 1018.6 |
| 20260906152533 | 70 | 26 | 6.1 | 11.3 | 0.00 | 0.00 | 0.00 | 74 | 1018.6 |
| 20260906152047 | 70 | 30 | 7.8 | 12.2 | 0.00 | 0.00 | 0.00 | 75 | 1018.6 |
| 20260906151554 | 70 | 355 | 6.1 | 13.0 | 0.00 | 0.00 | 0.00 | 75 | 1018.6 |
| 20260906151027 | 70 | 329 | 7.8 | 13.0 | 0.00 | 0.00 | 0.00 | 74 | 1018.5 |
| 20260906150553 | 70 | 292 | 7.8 | 10.4 | 0.00 | 0.00 | 0.00 | 75 | 1018.6 |
| 20260906150028 | 70 | 336 | 7.0 | 10.4 | 0.00 | 0.00 | 0.00 | 77 | 1018.6 |
| 20260906145555 | 70 | 5 | 5.2 | 8.7 | 0.00 | 0.00 | 0.00 | 77 | 1018.6 |
| 20260906145101 | 70 | 29 | 6.1 | 11.3 | 0.00 | 0.00 | 0.00 | 75 | 1018.7 |
| 20260906144525 | 70 | 42 | 7.0 | 11.3 | 0.00 | 0.00 | 0.00 | 76 | 1018.6 |
| 20260906144023 | 69 | 30 | 3.5 | 8.7 | 0.00 | 0.00 | 0.00 | 79 | 1018.5 |
| 20260906143524 | 69 | 23 | 5.2 | 8.7 | 0.00 | 0.00 | 0.00 | 80 | 1018.6 |
| 20260906143022 | 68 | 34 | 5.2 | 8.7 | 0.00 | 0.00 | 0.00 | 80 | 1018.6 |
| 20260906142529 | 68 | 35 | 4.3 | 7.8 | 0.00 | 0.00 | 0.00 | 82 | 1018.5 |
| 20260906142053 | 68 | 20 | 5.2 | 8.7 | 0.00 | 0.00 | 0.00 | 82 | 1018.5 |
| 20260906141600 | 68 | 19 | 5.2 | 8.7 | 0.00 | 0.00 | 0.00 | 82 | 1018.5 |
| 20260906141037 | 68 | 13 | 4.3 | 7.0 | 0.00 | 0.00 | 0.00 | 81 | 1018.2 |
| 20260906140526 | 68 | 54 | 4.3 | 10.4 | 0.00 | 0.00 | 0.00 | 82 | 1018.2 |
| 20260906140030 | 67 | 13 | 6.1 | 10.4 | 0.00 | 0.00 | 0.00 | 82 | 1018.1 |
| 20260906135558 | 67 | 18 | 4.3 | 7.8 | 0.00 | 0.00 | 0.00 | 82 | 1018.2 |
| 20260906135031 | 67 | 48 | 4.3 | 8.7 | 0.00 | 0.00 | 0.00 | 83 | 1018.1 |
| 20260906134539 | 67 | 20 | 4.3 | 8.7 | 0.00 | 0.00 | 0.00 | 84 | 1018.2 |
| 20260906133526 | 67 | 337 | 3.5 | 8.7 | 0.00 | 0.00 | 0.00 | 85 | 1018.1 |
| 20260906133042 | 67 | 324 | 5.2 | 8.7 | 0.00 | 0.00 | 0.00 | 86 | 1018.1 |
| 20260906132540 | 67 | 344 | 2.6 | 7.8 | 0.00 | 0.00 | 0.00 | 89 | 1018.0 |
| 20260906132026 | 66 | 25 | 3.5 | 7.8 | 0.00 | 0.00 | 0.00 | 89 | 1018.0 |
| 20260906131523 | 66 | 14 | 2.6 | 7.0 | 0.00 | 0.00 | 0.00 | 89 | 1017.9 |
| 20260906131054 | 66 | 60 | 3.5 | 6.1 | 0.00 | 0.00 | 0.00 | 89 | 1017.9 |
| 20260906130522 | 66 | 31 | 3.5 | 6.1 | 0.00 | 0.00 | 0.00 | 90 | 1018.0 |
| 20260906130056 | 66 | 22 | 4.3 | 8.7 | 0.00 | 0.00 | 0.00 | 91 | 1018.1 |
| 20260906125529 | 66 | 23 | 6.1 | 8.7 | 0.00 | 0.00 | 0.00 | 91 | 1018.0 |
| 20260906125022 | 65 | 30 | 5.2 | 9.6 | 0.00 | 0.00 | 0.00 | 92 | 1017.9 |
| 20260906124531 | 65 | 27 | 5.2 | 9.6 | 0.00 | 0.00 | 0.00 | 93 | 1017.9 |
| 20260906124033 | 65 | 40 | 4.3 | 6.1 | 0.00 | 0.00 | 0.00 | 94 | 1017.8 |
| 20260906123557 | 65 | 22 | 3.5 | 7.8 | 0.00 | 0.00 | 0.00 | 95 | 1017.8 |
| 20260906123039 | 64 | 11 | 3.5 | 7.8 | 0.00 | 0.00 | 0.00 | 95 | 1017.8 |
| 20260906122604 | 64 | 30 | 2.6 | 6.1 | 0.00 | 0.00 | 0.00 | 95 | 1017.7 |
| 20260906122037 | 64 | 26 | 2.6 | 5.2 | 0.00 | 0.00 | 0.00 | 95 | 1017.6 |
| 20260906121540 | 64 | 360 | 0.0 | 2.6 | 0.00 | 0.00 | 0.00 | 95 | 1017.6 |
| 20260906121028 | 63 | 5 | 0.0 | 0.0 | 0.00 | 0.00 | 0.00 | 95 | 1017.7 |
| 20260906120541 | 63 | 302 | 0.0 | 0.0 | 0.00 | 0.00 | 0.00 | 95 | 1017.6 |
| 20260906115526 | 62 | 298 | 0.0 | 0.0 | 0.00 | 0.00 | 0.00 | 94 | 1017.5 |
| 20260906115036 | 62 | 298 | 0.0 | 0.0 | 0.00 | 0.00 | 0.00 | 94 | 1017.3 |
| 20260906114603 | 61 | 298 | 0.0 | 0.0 | 0.00 | 0.00 | 0.00 | 94 | 1017.2 |
| 20260906114040 | 61 | 298 | 0.0 | 0.0 | 0.00 | 0.00 | 0.00 | 94 | 1017.2 |
| 20260906113550 | 61 | 298 | 0.0 | 0.0 | 0.00 | 0.00 | 0.00 | 93 | 1017.2 |
| 20260906113056 | 61 | 298 | 0.0 | 0.0 | 0.00 | 0.00 | 0.00 | 93 | 1017.2 |
| 20260906112535 | 61 | 298 | 0.0 | 0.0 | 0.00 | 0.00 | 0.00 | 93 | 1017.2 |
| 20260906112024 | 61 | 298 | 0.0 | 0.0 | 0.00 | 0.00 | 0.00 | 93 | 1017.1 |
| 20260906111535 | 61 | 298 | 0.0 | 0.0 | 0.00 | 0.00 | 0.00 | 93 | 1016.9 |
| 20260906111050 | 61 | 298 | 0.0 | 0.0 | 0.00 | 0.00 | 0.00 | 93 | 1016.9 |
| 20260906110522 | 61 | 298 | 0.0 | 0.0 | 0.00 | 0.00 | 0.00 | 93 | 1016.8 |
| 20260906110021 | 61 | 298 | 0.0 | 0.0 | 0.00 | 0.00 | 0.00 | 93 | 1016.8 |
| 20260906105548 | 61 | 298 | 0.0 | 0.0 | 0.00 | 0.00 | 0.00 | 93 | 1016.8 |
| 20260906105032 | 61 | 298 | 0.0 | 0.0 | 0.00 | 0.00 | 0.00 | 93 | 1016.8 |
| 20260906104549 | 61 | 298 | 0.0 | 0.0 | 0.00 | 0.00 | 0.00 | 93 | 1016.8 |
| 20260906104036 | 61 | 298 | 0.0 | 0.0 | 0.00 | 0.00 | 0.00 | 93 | 1016.7 |
| 20260906103522 | 61 | 298 | 0.0 | 0.0 | 0.00 | 0.00 | 0.00 | 93 | 1016.7 |
| 20260906103026 | 61 | 298 | 0.0 | 0.0 | 0.00 | 0.00 | 0.00 | 93 | 1016.6 |
| 20260906102533 | 61 | 298 | 0.0 | 0.0 | 0.00 | 0.00 | 0.00 | 93 | 1016.5 |
| 20260906102030 | 61 | 298 | 0.0 | 0.0 | 0.00 | 0.00 | 0.00 | 93 | 1016.5 |
| 20260906101539 | 61 | 298 | 0.0 | 0.0 | 0.00 | 0.00 | 0.00 | 93 | 1016.4 |
| 20260906101022 | 61 | 298 | 0.0 | 0.0 | 0.00 | 0.00 | 0.00 | 93 | 1016.4 |
| 20260906100523 | 61 | 298 | 0.0 | 0.0 | 0.00 | 0.00 | 0.00 | 93 | 1016.3 |
| 20260906100028 | 61 | 298 | 0.0 | 0.0 | 0.00 | 0.00 | 0.00 | 93 | 1016.3 |
| 20260906095527 | 61 | 298 | 0.0 | 0.0 | 0.00 | 0.00 | 0.00 | 93 | 1016.2 |
| 20260906095039 | 61 | 298 | 0.0 | 0.0 | 0.00 | 0.00 | 0.00 | 93 | 1016.1 |
| 20260906094544 | 61 | 298 | 0.0 | 0.0 | 0.00 | 0.00 | 0.00 | 93 | 1016.1 |
| 20260906094031 | 61 | 298 | 0.0 | 0.0 | 0.00 | 0.00 | 0.00 | 93 | 1016.1 |
| 20260906093542 | 61 | 298 | 0.0 | 0.0 | 0.00 | 0.00 | 0.00 | 93 | 1016.0 |
| 20260906093043 | 61 | 298 | 0.0 | 0.0 | 0.00 | 0.00 | 0.00 | 92 | 1016.0 |
| 20260906092523 | 61 | 298 | 0.0 | 0.0 | 0.00 | 0.00 | 0.00 | 93 | 1016.0 |
| 20260906092037 | 61 | 298 | 0.0 | 0.0 | 0.00 | 0.00 | 0.00 | 93 | 1015.9 |
| 20260906091524 | 61 | 298 | 0.0 | 0.0 | 0.00 | 0.00 | 0.00 | 92 | 1015.8 |
| 20260906091035 | 61 | 298 | 0.0 | 0.0 | 0.00 | 0.00 | 0.00 | 92 | 1015.7 |
| 20260906090530 | 61 | 298 | 0.0 | 0.0 | 0.00 | 0.00 | 0.00 | 92 | 1015.6 |
| 20260906090039 | 61 | 298 | 0.0 | 0.0 | 0.00 | 0.00 | 0.00 | 92 | 1015.5 |
| 20260906085525 | 62 | 298 | 0.0 | 0.0 | 0.00 | 0.00 | 0.00 | 92 | 1015.4 |
| 20260906085105 | 62 | 298 | 0.0 | 0.0 | 0.00 | 0.00 | 0.00 | 92 | 1015.3 |
| 20260906084532 | 62 | 298 | 0.0 | 0.0 | 0.00 | 0.00 | 0.00 | 92 | 1015.3 |
| 20260906084025 | 62 | 298 | 0.0 | 0.0 | 0.00 | 0.00 | 0.00 | 92 | 1015.3 |
| 20260906083544 | 62 | 298 | 0.0 | 0.0 | 0.00 | 0.00 | 0.00 | 92 | 1015.3 |
| 20260906083027 | 62 | 298 | 0.0 | 0.0 | 0.00 | 0.00 | 0.00 | 92 | 1015.3 |
| 20260906082543 | 62 | 298 | 0.0 | 0.0 | 0.00 | 0.00 | 0.00 | 92 | 1015.2 |
| 20260906082032 | 63 | 298 | 0.0 | 0.0 | 0.00 | 0.00 | 0.00 | 92 | 1015.2 |
| 20260906081536 | 63 | 298 | 0.0 | 0.0 | 0.00 | 0.00 | 0.00 | 92 | 1015.2 |
| 20260906081053 | 63 | 298 | 0.0 | 0.0 | 0.00 | 0.00 | 0.00 | 92 | 1015.2 |
| 20260906080525 | 63 | 298 | 0.0 | 0.0 | 0.00 | 0.00 | 0.00 | 92 | 1015.1 |
| 20260906080055 | 63 | 298 | 0.0 | 0.0 | 0.00 | 0.00 | 0.00 | 92 | 1015.2 |
| 20260906075526 | 63 | 298 | 0.0 | 0.0 | 0.00 | 0.00 | 0.00 | 92 | 1015.2 |
| 20260906075044 | 63 | 298 | 0.0 | 0.0 | 0.00 | 0.00 | 0.00 | 92 | 1015.2 |
| 20260906074542 | 63 | 298 | 0.0 | 0.0 | 0.00 | 0.00 | 0.00 | 92 | 1015.1 |
| 20260906074048 | 63 | 298 | 0.0 | 0.0 | 0.00 | 0.00 | 0.00 | 92 | 1015.1 |
| 20260906073535 | 63 | 298 | 0.0 | 0.0 | 0.00 | 0.00 | 0.00 | 92 | 1015.1 |
| 20260906073039 | 63 | 298 | 0.0 | 0.0 | 0.00 | 0.00 | 0.00 | 92 | 1015.1 |
| 20260906072547 | 63 | 298 | 0.0 | 0.0 | 0.00 | 0.00 | 0.00 | 92 | 1015.0 |
| 20260906072034 | 63 | 298 | 0.0 | 0.0 | 0.00 | 0.00 | 0.00 | 92 | 1015.0 |
| 20260906071551 | 63 | 298 | 0.0 | 0.0 | 0.00 | 0.00 | 0.00 | 92 | 1015.1 |
| 20260906071024 | 63 | 298 | 0.0 | 0.0 | 0.00 | 0.00 | 0.00 | 92 | 1015.1 |
| 20260906070542 | 63 | 298 | 0.0 | 0.0 | 0.00 | 0.00 | 0.00 | 92 | 1015.1 |
| 20260906070029 | 64 | 298 | 0.0 | 0.0 | 0.00 | 0.00 | 0.00 | 92 | 1015.1 |
| 20260906065540 | 64 | 298 | 0.0 | 0.0 | 0.00 | 0.00 | 0.00 | 92 | 1015.1 |
| 20260906065033 | 64 | 298 | 0.0 | 0.0 | 0.00 | 0.00 | 0.00 | 92 | 1015.1 |
| 20260906064533 | 64 | 298 | 0.0 | 0.0 | 0.00 | 0.00 | 0.00 | 92 | 1015.1 |
| 20260906064025 | 64 | 298 | 0.0 | 0.0 | 0.00 | 0.00 | 0.00 | 92 | 1015.2 |
| 20260906063536 | 64 | 298 | 0.0 | 0.0 | 0.00 | 0.00 | 0.00 | 92 | 1015.2 |
| 20260906063059 | 64 | 298 | 0.0 | 0.0 | 0.00 | 0.00 | 0.00 | 92 | 1015.2 |
| 20260906062525 | 64 | 298 | 0.0 | 0.0 | 0.00 | 0.00 | 0.00 | 92 | 1015.2 |
| 20260906062046 | 64 | 298 | 0.0 | 0.0 | 0.00 | 0.00 | 0.00 | 92 | 1015.1 |
| 20260906061600 | 64 | 298 | 0.0 | 0.0 | 0.00 | 0.00 | 0.00 | 92 | 1015.2 |
| 20260906061024 | 64 | 298 | 0.0 | 0.0 | 0.00 | 0.00 | 0.00 | 92 | 1015.2 |
| 20260906060537 | 64 | 298 | 0.0 | 0.0 | 0.00 | 0.00 | 0.00 | 92 | 1015.2 |
| 20260906060030 | 64 | 298 | 0.0 | 0.0 | 0.00 | 0.00 | 0.00 | 92 | 1015.1 |
| 20260906055527 | 64 | 298 | 0.0 | 0.0 | 0.00 | 0.00 | 0.00 | 92 | 1015.1 |
| 20260906055056 | 64 | 298 | 0.0 | 0.0 | 0.00 | 0.00 | 0.00 | 92 | 1015.1 |
| 20260906054544 | 64 | 298 | 0.0 | 0.0 | 0.00 | 0.00 | 0.00 | 92 | 1015.2 |
| 20260906054029 | 64 | 298 | 0.0 | 0.0 | 0.00 | 0.00 | 0.00 | 92 | 1015.2 |
| 20260906053527 | 64 | 298 | 0.0 | 0.0 | 0.00 | 0.00 | 0.00 | 92 | 1015.2 |
| 20260906053040 | 64 | 298 | 0.0 | 0.0 | 0.00 | 0.00 | 0.00 | 92 | 1015.3 |
| 20260906052523 | 64 | 298 | 0.0 | 0.0 | 0.00 | 0.00 | 0.00 | 92 | 1015.3 |
| 20260906052041 | 64 | 298 | 0.0 | 0.0 | 0.00 | 0.00 | 0.00 | 92 | 1015.3 |
| 20260906051536 | 64 | 298 | 0.0 | 0.0 | 0.00 | 0.00 | 0.00 | 92 | 1015.3 |
| 20260906051036 | 64 | 298 | 0.0 | 0.0 | 0.00 | 0.00 | 0.00 | 92 | 1015.4 |
| 20260906050522 | 64 | 298 | 0.0 | 0.0 | 0.00 | 0.00 | 0.00 | 92 | 1015.4 |
| 20260906050034 | 64 | 298 | 0.0 | 0.0 | 0.00 | 0.00 | 0.00 | 91 | 1015.3 |
| 20260906045606 | 64 | 298 | 0.0 | 0.0 | 0.00 | 0.00 | 0.00 | 91 | 1015.2 |
| 20260906045031 | 64 | 298 | 0.0 | 0.0 | 0.00 | 0.00 | 0.00 | 91 | 1015.2 |
| 20260906044526 | 64 | 298 | 0.0 | 0.0 | 0.00 | 0.00 | 0.00 | 91 | 1015.2 |
| 20260906044037 | 64 | 298 | 0.0 | 0.0 | 0.00 | 0.00 | 0.00 | 91 | 1015.1 |
| 20260906043548 | 64 | 298 | 0.0 | 0.0 | 0.00 | 0.00 | 0.00 | 91 | 1015.0 |
| 20260906043047 | 64 | 298 | 0.0 | 0.0 | 0.00 | 0.00 | 0.00 | 90 | 1015.0 |
| 20260906042533 | 64 | 298 | 0.0 | 0.0 | 0.00 | 0.00 | 0.00 | 90 | 1015.0 |
| 20260906042032 | 64 | 298 | 0.0 | 0.0 | 0.00 | 0.00 | 0.00 | 90 | 1015.1 |
| 20260906041550 | 64 | 298 | 0.0 | 0.0 | 0.00 | 0.00 | 0.00 | 90 | 1015.1 |
| 20260906041034 | 64 | 298 | 0.0 | 0.0 | 0.00 | 0.00 | 0.00 | 90 | 1015.1 |
| 20260906040549 | 64 | 298 | 0.0 | 0.0 | 0.00 | 0.00 | 0.00 | 90 | 1015.1 |
| 20260906040024 | 65 | 298 | 0.0 | 0.0 | 0.00 | 0.00 | 0.00 | 90 | 1015.1 |
| 20260906035552 | 65 | 298 | 0.0 | 0.0 | 0.00 | 0.00 | 0.00 | 90 | 1015.0 |
| 20260906035024 | 65 | 298 | 0.0 | 0.0 | 0.00 | 0.00 | 0.00 | 90 | 1015.0 |
| 20260906034551 | 65 | 298 | 0.0 | 0.0 | 0.00 | 0.00 | 0.00 | 90 | 1015.0 |
| 20260906034029 | 65 | 298 | 0.0 | 0.0 | 0.00 | 0.00 | 0.00 | 90 | 1015.0 |
| 20260906033533 | 65 | 298 | 0.0 | 0.0 | 0.00 | 0.00 | 0.00 | 90 | 1014.9 |
| 20260906033108 | 65 | 298 | 0.0 | 0.0 | 0.00 | 0.00 | 0.00 | 90 | 1014.9 |
| 20260906032554 | 65 | 298 | 0.0 | 0.0 | 0.00 | 0.00 | 0.00 | 90 | 1014.9 |
| 20260906032038 | 65 | 298 | 0.0 | 0.0 | 0.00 | 0.00 | 0.00 | 89 | 1015.0 |
| 20260906031533 | 65 | 298 | 0.0 | 0.0 | 0.00 | 0.00 | 0.00 | 89 | 1015.0 |
| 20260906031041 | 65 | 298 | 0.0 | 0.0 | 0.00 | 0.00 | 0.00 | 89 | 1015.0 |
| 20260906030527 | 65 | 298 | 0.0 | 0.0 | 0.00 | 0.00 | 0.00 | 89 | 1014.8 |
| 20260906030039 | 65 | 298 | 0.0 | 0.0 | 0.00 | 0.00 | 0.00 | 89 | 1014.8 |
| 20260906025546 | 65 | 298 | 0.0 | 0.0 | 0.00 | 0.00 | 0.00 | 89 | 1014.8 |
| 20260906025027 | 65 | 298 | 0.0 | 0.0 | 0.00 | 0.00 | 0.00 | 88 | 1014.8 |
| 20260906024540 | 65 | 298 | 0.0 | 0.0 | 0.00 | 0.00 | 0.00 | 88 | 1014.7 |
| 20260906024044 | 65 | 298 | 0.0 | 0.0 | 0.00 | 0.00 | 0.00 | 88 | 1014.7 |
| 20260906023552 | 65 | 298 | 0.0 | 0.0 | 0.00 | 0.00 | 0.00 | 88 | 1014.7 |
| 20260906023037 | 65 | 298 | 0.0 | 0.0 | 0.00 | 0.00 | 0.00 | 88 | 1014.8 |
| 20260906022543 | 66 | 296 | 0.0 | 0.0 | 0.00 | 0.00 | 0.00 | 88 | 1014.8 |
| 20260906022057 | 66 | 296 | 0.0 | 0.0 | 0.00 | 0.00 | 0.00 | 87 | 1014.7 |
| 20260906021530 | 66 | 296 | 0.0 | 0.0 | 0.00 | 0.00 | 0.00 | 87 | 1014.7 |
| 20260906021025 | 66 | 296 | 0.0 | 0.0 | 0.00 | 0.00 | 0.00 | 86 | 1014.6 |
| 20260906020533 | 66 | 296 | 0.0 | 0.0 | 0.00 | 0.00 | 0.00 | 86 | 1014.6 |
| 20260906020029 | 66 | 296 | 0.0 | 0.0 | 0.00 | 0.00 | 0.00 | 86 | 1014.7 |
| 20260906015559 | 66 | 296 | 0.0 | 0.0 | 0.00 | 0.00 | 0.00 | 86 | 1014.7 |
| 20260906015051 | 66 | 296 | 0.0 | 0.0 | 0.00 | 0.00 | 0.00 | 86 | 1014.7 |
| 20260906014539 | 66 | 296 | 0.0 | 0.0 | 0.00 | 0.00 | 0.00 | 86 | 1014.6 |
| 20260906014044 | 67 | 296 | 0.0 | 0.0 | 0.00 | 0.00 | 0.00 | 86 | 1014.5 |
| 20260906013540 | 67 | 296 | 0.0 | 0.0 | 0.00 | 0.00 | 0.00 | 86 | 1014.5 |
| 20260906013023 | 67 | 296 | 0.0 | 0.0 | 0.00 | 0.00 | 0.00 | 86 | 1014.5 |
| 20260906012545 | 67 | 296 | 0.0 | 0.0 | 0.00 | 0.00 | 0.00 | 85 | 1014.5 |
| 20260906012059 | 67 | 296 | 0.0 | 0.0 | 0.00 | 0.00 | 0.00 | 84 | 1014.5 |
| 20260906011530 | 67 | 296 | 0.0 | 0.0 | 0.00 | 0.00 | 0.00 | 84 | 1014.5 |
| 20260906011029 | 67 | 296 | 0.0 | 0.0 | 0.00 | 0.00 | 0.00 | 84 | 1014.4 |
| 20260906010527 | 68 | 296 | 0.0 | 0.0 | 0.00 | 0.00 | 0.00 | 84 | 1014.5 |
| 20260906010050 | 68 | 296 | 0.0 | 0.0 | 0.00 | 0.00 | 0.00 | 84 | 1014.5 |
| 20260906005527 | 68 | 296 | 0.0 | 0.0 | 0.00 | 0.00 | 0.00 | 83 | 1014.5 |
| 20260906005034 | 68 | 296 | 0.0 | 0.0 | 0.00 | 0.00 | 0.00 | 82 | 1014.4 |
| 20260906004532 | 68 | 296 | 0.0 | 0.0 | 0.00 | 0.00 | 0.00 | 83 | 1014.4 |
| 20260906004026 | 68 | 296 | 0.0 | 0.0 | 0.00 | 0.00 | 0.00 | 83 | 1014.3 |
| 20260906003550 | 69 | 296 | 0.0 | 0.0 | 0.00 | 0.00 | 0.00 | 82 | 1014.2 |
| 20260906003024 | 69 | 296 | 0.0 | 0.0 | 0.00 | 0.00 | 0.00 | 81 | 1014.2 |
| 20260906002552 | 69 | 296 | 0.0 | 0.0 | 0.00 | 0.00 | 0.00 | 82 | 1014.2 |
| 20260906002027 | 69 | 296 | 0.0 | 0.0 | 0.00 | 0.00 | 0.00 | 82 | 1014.3 |
| 20260906001554 | 69 | 296 | 0.0 | 0.0 | 0.00 | 0.00 | 0.00 | 81 | 1014.3 |
| 20260906001029 | 69 | 296 | 0.0 | 0.0 | 0.00 | 0.00 | 0.00 | 81 | 1014.4 |
| 20260906000600 | 70 | 296 | 0.0 | 0.0 | 0.00 | 0.00 | 0.00 | 80 | 1014.4 |
| 20260906000026 | 70 | 296 | 0.0 | 0.0 | 0.00 | 0.00 | 0.00 | 80 | 1014.4 |
| 20260905235539 | 70 | 296 | 0.0 | 0.0 | 0.00 | 0.00 | 0.00 | 79 | 1014.4 |
| 20260905235053 | 70 | 296 | 0.0 | 0.0 | 0.00 | 0.00 | 0.00 | 78 | 1014.3 |
| 20260905234541 | 70 | 296 | 0.0 | 0.0 | 0.00 | 0.00 | 0.00 | 78 | 1014.3 |
| 20260905234023 | 71 | 296 | 0.0 | 0.0 | 0.00 | 0.00 | 0.00 | 78 | 1014.3 |
| 20260905233525 | 71 | 296 | 0.0 | 0.0 | 0.00 | 0.00 | 0.00 | 78 | 1014.3 |
| 20260905233038 | 71 | 296 | 0.0 | 0.0 | 0.00 | 0.00 | 0.00 | 78 | 1014.3 |
| 20260905232542 | 71 | 296 | 0.0 | 0.0 | 0.00 | 0.00 | 0.00 | 78 | 1014.3 |
| 20260905232032 | 71 | 296 | 0.0 | 0.0 | 0.00 | 0.00 | 0.00 | 78 | 1014.4 |
| 20260905231559 | 71 | 300 | 0.0 | 2.6 | 0.00 | 0.00 | 0.00 | 78 | 1014.4 |
| 20260905231044 | 71 | 315 | 0.9 | 3.5 | 0.00 | 0.00 | 0.00 | 78 | 1014.3 |
| 20260905230529 | 71 | 331 | 0.9 | 3.5 | 0.00 | 0.00 | 0.00 | 78 | 1014.3 |
| 20260905230024 | 71 | 322 | 1.7 | 5.2 | 0.00 | 0.00 | 0.00 | 78 | 1014.3 |
| 20260905225548 | 71 | 324 | 1.7 | 5.2 | 0.00 | 0.00 | 0.00 | 78 | 1014.4 |
| 20260905225031 | 71 | 298 | 1.7 | 6.1 | 0.00 | 0.00 | 0.00 | 78 | 1014.3 |
| 20260905224531 | 71 | 355 | 3.5 | 6.1 | 0.00 | 0.00 | 0.00 | 78 | 1014.5 |
| 20260905224043 | 71 | 342 | 3.5 | 6.1 | 0.00 | 0.00 | 0.00 | 77 | 1014.4 |
| 20260905223544 | 71 | 325 | 0.9 | 7.0 | 0.00 | 0.00 | 0.00 | 77 | 1014.4 |
| 20260905223030 | 71 | 333 | 2.6 | 7.0 | 0.00 | 0.00 | 0.00 | 76 | 1014.3 |
| 20260905222524 | 71 | 292 | 1.7 | 5.2 | 0.00 | 0.00 | 0.00 | 77 | 1014.1 |
| 20260905222041 | 71 | 360 | 2.6 | 7.0 | 0.00 | 0.00 | 0.00 | 76 | 1014.2 |
| 20260905221541 | 71 | 341 | 4.3 | 10.4 | 0.00 | 0.00 | 0.00 | 76 | 1014.1 |
| 20260905221030 | 71 | 336 | 5.2 | 10.4 | 0.00 | 0.00 | 0.00 | 75 | 1014.2 |
| 20260905220542 | 71 | 315 | 6.1 | 9.6 | 0.00 | 0.00 | 0.00 | 75 | 1014.2 |
| 20260905220038 | 72 | 344 | 5.2 | 8.7 | 0.00 | 0.00 | 0.00 | 76 | 1014.0 |
| 20260905215558 | 72 | 340 | 6.1 | 8.7 | 0.00 | 0.00 | 0.00 | 77 | 1014.0 |
| 20260905215035 | 72 | 355 | 4.3 | 6.1 | 0.00 | 0.00 | 0.00 | 77 | 1014.0 |
| 20260905214542 | 72 | 323 | 2.6 | 7.0 | 0.00 | 0.00 | 0.00 | 77 | 1013.9 |
| 20260905214033 | 72 | 329 | 2.6 | 7.0 | 0.00 | 0.00 | 0.00 | 77 | 1013.9 |
| 20260905213536 | 72 | 335 | 1.7 | 6.1 | 0.00 | 0.00 | 0.00 | 77 | 1013.8 |